| time (UTC) | temp C | wind direction | speed KPH | gust KPH | rain 1hr cm | rain 24hr cm | rain mn cm | humidity % | barometer mb |
| 20260507060033 | 6 | 44 | 8.0 | 19.3 | 0.00 | 0.66 | 0.00 | 87 | 1011.3 |
| 20260507054531 | 6 | 26 | 8.0 | 25.7 | 0.00 | 0.94 | 0.00 | 87 | 1011.3 |
| 20260507053028 | 5 | 34 | 8.0 | 22.5 | 0.00 | 0.94 | 0.00 | 87 | 1011.4 |
| 20260507051527 | 5 | 71 | 11.3 | 29.0 | 0.00 | 0.94 | 0.00 | 86 | 1011.1 |
| 20260507050031 | 6 | 60 | 14.5 | 30.6 | 0.00 | 0.94 | 0.00 | 84 | 1011.0 |
| 20260507044538 | 6 | 35 | 14.5 | 24.1 | 0.00 | 1.09 | 0.00 | 83 | 1010.8 |
| 20260507043018 | 6 | 57 | 14.5 | 24.1 | 0.00 | 1.09 | 0.00 | 83 | 1010.5 |
| 20260507041517 | 6 | 22 | 8.0 | 19.3 | 0.00 | 1.09 | 0.00 | 83 | 1010.4 |
| 20260507040017 | 6 | 22 | 8.0 | 19.3 | 0.00 | 1.09 | 0.00 | 83 | 1010.2 |
| 20260507034514 | 6 | 51 | 8.0 | 16.1 | 0.00 | 1.12 | 0.00 | 83 | 1010.2 |
| 20260507033012 | 6 | 31 | 8.0 | 16.1 | 0.00 | 1.12 | 0.00 | 84 | 1010.0 |
| 20260507031508 | 6 | 5 | 8.0 | 14.5 | 0.00 | 1.12 | 0.00 | 84 | 1009.8 |
| 20260507030005 | 6 | 30 | 6.4 | 16.1 | 0.00 | 1.12 | 0.00 | 85 | 1009.8 |
| 20260507024502 | 6 | 36 | 8.0 | 14.5 | 0.00 | 1.12 | 0.00 | 86 | 1009.8 |
| 20260507023100 | 6 | 22 | 6.4 | 19.3 | 0.00 | 1.12 | 0.00 | 86 | 1009.7 |
| 20260507021616 | 6 | 38 | 14.5 | 25.7 | 0.00 | 1.12 | 0.00 | 85 | 1009.7 |
| 20260507020106 | 6 | 38 | 8.0 | 24.1 | 0.00 | 1.12 | 0.00 | 85 | 1009.7 |
| 20260507014613 | 6 | 42 | 14.5 | 24.1 | 0.00 | 1.12 | 0.00 | 84 | 1009.6 |
| 20260507013055 | 6 | 18 | 14.5 | 24.1 | 0.00 | 1.12 | 0.00 | 83 | 1009.3 |
| 20260507011551 | 6 | 41 | 14.5 | 25.7 | 0.00 | 1.12 | 0.00 | 81 | 1009.2 |
| 20260507004549 | 6 | 51 | 8.0 | 19.3 | 0.00 | 1.12 | 0.00 | 80 | 1009.0 |
| 20260507003046 | 6 | 42 | 8.0 | 17.7 | 0.00 | 1.12 | 0.00 | 80 | 1009.3 |
| 20260507001550 | 6 | 35 | 8.0 | 16.1 | 0.00 | 1.12 | 0.00 | 80 | 1009.2 |
| 20260507000044 | 5 | 34 | 4.8 | 14.5 | 0.00 | 1.12 | 0.00 | 81 | 1009.2 |
| 20260506234540 | 6 | 42 | 6.4 | 17.7 | 0.00 | 1.12 | 0.00 | 82 | 1008.7 |
| 20260506233038 | 6 | 44 | 8.0 | 22.5 | 0.00 | 1.12 | 0.00 | 81 | 1008.8 |
| 20260506231536 | 6 | 94 | 8.0 | 22.5 | 0.00 | 1.12 | 0.00 | 80 | 1008.7 |
| 20260506230036 | 6 | 34 | 8.0 | 19.3 | 0.00 | 1.12 | 0.00 | 80 | 1008.7 |
| 20260506224535 | 6 | 40 | 14.5 | 29.0 | 0.00 | 1.12 | 0.00 | 80 | 1008.8 |
| 20260506223031 | 6 | 41 | 11.3 | 19.3 | 0.00 | 1.12 | 0.00 | 80 | 1008.5 |
| 20260506221527 | 6 | 66 | 6.4 | 19.3 | 0.00 | 1.12 | 0.00 | 80 | 1008.8 |
| 20260506220029 | 6 | 5 | 8.0 | 16.1 | 0.00 | 1.12 | 0.00 | 80 | 1008.7 |
| 20260506214521 | 6 | 53 | 8.0 | 19.3 | 0.00 | 1.12 | 1.12 | 80 | 1008.7 |
| 20260506213019 | 6 | 54 | 4.8 | 19.3 | 0.00 | 1.12 | 1.12 | 79 | 1008.5 |
| 20260506211517 | 6 | 65 | 12.9 | 27.4 | 0.00 | 1.12 | 1.12 | 79 | 1008.1 |
| 20260506210018 | 6 | 44 | 16.1 | 30.6 | 0.00 | 1.12 | 1.12 | 78 | 1007.9 |
| 20260506204516 | 6 | 61 | 8.0 | 24.1 | 0.00 | 1.12 | 1.12 | 78 | 1008.1 |
| 20260506203012 | 6 | 54 | 11.3 | 19.3 | 0.00 | 1.12 | 1.12 | 79 | 1008.0 |
| 20260506201511 | 6 | 62 | 11.3 | 24.1 | 0.00 | 1.12 | 1.12 | 80 | 1008.0 |
| 20260506200010 | 6 | 36 | 11.3 | 17.7 | 0.00 | 1.12 | 1.12 | 80 | 1007.8 |
| 20260506194507 | 6 | 40 | 9.7 | 24.1 | 0.00 | 1.12 | 1.12 | 80 | 1007.9 |
| 20260506193006 | 6 | 50 | 8.0 | 19.3 | 0.00 | 1.12 | 1.12 | 80 | 1008.0 |
| 20260506191505 | 6 | 36 | 6.4 | 12.9 | 0.00 | 1.12 | 1.12 | 80 | 1007.9 |
| 20260506190058 | 6 | 28 | 8.0 | 20.9 | 0.00 | 1.12 | 1.12 | 81 | 1007.6 |
| 20260506184602 | 6 | 49 | 6.4 | 16.1 | 0.00 | 1.12 | 1.12 | 81 | 1007.6 |
| 20260506183055 | 6 | 39 | 8.0 | 16.1 | 0.00 | 1.12 | 1.12 | 81 | 1007.5 |
| 20260506181551 | 7 | 57 | 8.0 | 25.7 | 0.00 | 1.12 | 1.12 | 82 | 1007.0 |
| 20260506180048 | 7 | 31 | 8.0 | 24.1 | 0.00 | 1.12 | 1.12 | 80 | 1006.8 |
| 20260506174545 | 8 | 47 | 17.7 | 25.7 | 0.00 | 1.12 | 1.12 | 78 | 1006.7 |
| 20260506173059 | 8 | 30 | 8.0 | 17.7 | 0.00 | 1.12 | 1.12 | 77 | 1006.6 |
| 20260506171552 | 8 | 14 | 6.4 | 19.3 | 0.00 | 1.12 | 1.12 | 77 | 1006.6 |
| 20260506170041 | 8 | 13 | 8.0 | 22.5 | 0.00 | 1.12 | 1.12 | 74 | 1006.5 |
| 20260506164541 | 8 | 55 | 14.5 | 20.9 | 0.00 | 1.12 | 1.12 | 73 | 1006.3 |
| 20260506163053 | 9 | 36 | 9.7 | 20.9 | 0.00 | 1.12 | 1.12 | 70 | 1006.1 |
| 20260506161543 | 9 | 41 | 3.2 | 8.0 | 0.00 | 1.12 | 1.12 | 69 | 1006.1 |
| 20260506160039 | 9 | 11 | 4.8 | 9.7 | 0.00 | 1.12 | 1.12 | 68 | 1006.0 |
| 20260506154540 | 9 | 333 | 4.8 | 14.5 | 0.00 | 1.12 | 1.12 | 67 | 1006.1 |
| 20260506153041 | 10 | 22 | 8.0 | 17.7 | 0.00 | 1.12 | 1.12 | 64 | 1006.0 |
| 20260506151538 | 10 | 345 | 1.6 | 9.7 | 0.00 | 1.12 | 1.12 | 60 | 1005.9 |
| 20260506150036 | 9 | 48 | 6.4 | 17.7 | 0.00 | 1.12 | 1.12 | 59 | 1005.9 |
| 20260506144538 | 9 | 9 | 6.4 | 14.5 | 0.00 | 1.12 | 1.12 | 57 | 1005.7 |
| 20260506143035 | 9 | 347 | 11.3 | 20.9 | 0.00 | 1.12 | 1.12 | 56 | 1005.7 |
| 20260506141533 | 9 | 19 | 6.4 | 16.1 | 0.03 | 1.12 | 1.12 | 54 | 1005.7 |
| 20260506140038 | 9 | 26 | 6.4 | 14.5 | 0.03 | 1.12 | 1.12 | 55 | 1005.8 |
| 20260506134529 | 9 | 46 | 8.0 | 19.3 | 0.03 | 1.12 | 1.12 | 55 | 1005.8 |
| 20260506133026 | 8 | 53 | 4.8 | 17.7 | 0.05 | 1.12 | 1.12 | 55 | 1005.9 |
| 20260506131522 | 8 | 53 | 8.0 | 19.3 | 0.05 | 1.09 | 1.09 | 55 | 1005.8 |
| 20260506130021 | 8 | 17 | 9.7 | 16.1 | 0.05 | 1.09 | 1.09 | 54 | 1005.8 |
| 20260506124520 | 8 | 34 | 6.4 | 16.1 | 0.05 | 1.09 | 1.09 | 54 | 1005.7 |
| 20260506123019 | 8 | 38 | 6.4 | 19.3 | 0.05 | 1.09 | 1.09 | 55 | 1005.6 |
| 20260506121518 | 8 | 30 | 8.0 | 17.7 | 0.05 | 1.07 | 1.07 | 55 | 1005.3 |
| 20260506120017 | 8 | 46 | 11.3 | 19.3 | 0.08 | 1.07 | 1.07 | 55 | 1005.1 |
| 20260506114515 | 8 | 26 | 9.7 | 22.5 | 0.08 | 1.04 | 1.04 | 56 | 1005.1 |
| 20260506113016 | 8 | 24 | 11.3 | 24.1 | 0.08 | 1.02 | 1.02 | 55 | 1005.0 |
| 20260506111512 | 8 | 37 | 11.3 | 20.9 | 0.10 | 0.99 | 0.99 | 55 | 1004.9 |
| 20260506110010 | 8 | 37 | 12.9 | 27.4 | 0.10 | 0.99 | 0.99 | 55 | 1004.9 |
| 20260506104508 | 8 | 30 | 8.0 | 14.5 | 0.13 | 0.97 | 0.97 | 54 | 1004.7 |
| 20260506103007 | 8 | 11 | 6.4 | 17.7 | 0.13 | 0.94 | 0.94 | 54 | 1004.9 |
| 20260506101506 | 8 | 34 | 8.0 | 17.7 | 0.13 | 0.89 | 0.89 | 54 | 1004.9 |
| 20260506100005 | 8 | 5 | 8.0 | 17.7 | 0.15 | 0.89 | 0.89 | 55 | 1004.8 |
| 20260506094606 | 8 | 57 | 9.7 | 20.9 | 0.10 | 0.84 | 0.84 | 55 | 1004.7 |
| 20260506093010 | 8 | 52 | 9.7 | 20.9 | 0.08 | 0.81 | 0.81 | 54 | 1004.8 |
| 20260506091501 | 8 | 27 | 11.3 | 20.9 | 0.05 | 0.79 | 0.79 | 54 | 1004.5 |
| 20260506090002 | 8 | 11 | 9.7 | 27.4 | 0.05 | 0.71 | 0.71 | 55 | 1004.4 |
| 20260506084604 | 8 | 38 | 12.9 | 22.5 | 0.05 | 0.79 | 0.71 | 55 | 1004.4 |
| 20260506083100 | 9 | 33 | 16.1 | 25.7 | 0.08 | 0.79 | 0.71 | 54 | 1004.4 |
| 20260506081558 | 9 | 32 | 9.7 | 22.5 | 0.10 | 0.79 | 0.71 | 54 | 1004.5 |
| 20260506080110 | 9 | 36 | 12.9 | 20.9 | 0.08 | 0.76 | 0.71 | 54 | 1004.5 |
| 20260506073102 | 9 | 15 | 9.7 | 24.1 | 0.13 | 0.81 | 0.66 | 55 | 1004.4 |
| 20260506071551 | 9 | 32 | 14.5 | 29.0 | 0.15 | 0.79 | 0.64 | 55 | 1004.1 |
| 20260506061556 | 8 | 43 | 9.7 | 20.9 | 0.23 | 0.81 | 0.51 | 57 | 1004.4 |